User: anonymous   Login
Location: Unspecified
(0.0000°N, 0.0000°E)
Time: 12:26:55
(UTC+00:00)
Language:

STSS DEMO 1 (USA 208) - Orbit

View from above orbital plane
View from above orbital plane
View from above satellite
View from above satellite

Ground track
Ground track

The orbit data is extracted from the following two-line orbital elements,

1 35937U 09052A   18339.48740052 0.00000000  00000-0  00000-0 0    00
2 35937  57.9872  13.4988 0019998 126.2517 233.7483 12.79330493    01
Epoch (UTC): 05 December 2018 11:41:51
Eccentricity: 0.0019998
inclination: 57.9872°
perigee height: 1329 km
apogee height: 1359 km
right ascension of ascending node: 13.4988°
argument of perigee: 126.2517°
revolutions per day: 12.79330493
mean anomaly at epoch: 233.7483°
orbit number at epoch: 0

The dashed part of the orbit path shows where the satellite is in the earth's shadow,  

DLR